TimeCST,TemperatureF,Dew PointF,Humidity,Sea Level PressureIn,VisibilityMPH,Wind Direction,Wind SpeedMPH,Gust SpeedMPH,PrecipitationIn,Events,Conditions,WindDirDegrees,DateUTC
12:53 AM,32.0,24.1,73,30.22,10.0,ESE,6.9,-,N/A,,Clear,120,2013-01-03 06:53:00
1:53 AM,28.9,21.9,75,30.22,10.0,East,4.6,-,N/A,,Clear,100,2013-01-03 07:53:00
2:53 AM,35.1,27.0,72,30.21,10.0,SSE,10.4,-,N/A,,Partly Cloudy,150,2013-01-03 08:53:00
3:53 AM,35.1,28.0,76,30.22,10.0,East,9.2,-,N/A,,Overcast,100,2013-01-03 09:53:00
4:53 AM,33.1,25.0,72,30.25,10.0,Calm,Calm,-,N/A,,Overcast,0,2013-01-03 10:53:00
5:53 AM,35.1,26.1,70,30.25,10.0,SE,5.8,-,N/A,,Overcast,130,2013-01-03 11:53:00
6:53 AM,35.1,25.0,67,30.26,10.0,East,6.9,-,N/A,,Overcast,100,2013-01-03 12:53:00
7:53 AM,33.1,30.0,89,30.32,4.0,ESE,11.5,19.6,0.00,Snow,Light Snow,110,2013-01-03 13:53:00
8:23 AM,33.8,30.2,87,30.36,1.8,SE,9.2,-,0.00,Snow,Light Snow,130,2013-01-03 14:23:00
8:29 AM,33.8,30.2,87,30.36,1.0,ESE,8.1,-,0.00,Snow,Light Snow,120,2013-01-03 14:29:00
8:53 AM,32.0,30.0,92,30.36,0.5,East,12.7,-,0.00,Fog-Snow,Snow,100,2013-01-03 14:53:00
8:59 AM,32.0,30.2,93,30.37,0.2,East,11.5,-,0.01,Fog-Snow,Heavy Snow,100,2013-01-03 14:59:00
9:16 AM,32.0,30.2,93,30.37,0.5,East,11.5,-,0.01,Fog-Snow,Snow,90,2013-01-03 15:16:00
9:24 AM,32.0,30.2,93,30.37,0.8,East,12.7,-,0.01,Snow,Light Snow,90,2013-01-03 15:24:00
9:30 AM,32.0,30.2,93,30.38,1.2,East,12.7,-,0.01,Snow,Light Snow,90,2013-01-03 15:30:00
9:39 AM,32.0,30.2,93,30.37,3.0,East,12.7,-,0.01,Snow,Light Snow,100,2013-01-03 15:39:00
9:50 AM,32.0,30.2,93,30.37,5.0,East,12.7,-,0.01,,Overcast,90,2013-01-03 15:50:00
9:53 AM,32.0,30.0,92,30.37,6.0,East,12.7,-,0.01,,Overcast,90,2013-01-03 15:53:00
10:16 AM,32.0,30.2,93,30.40,7.0,East,9.2,-,N/A,,Overcast,90,2013-01-03 16:16:00
10:25 AM,32.0,30.2,93,30.40,8.0,ENE,9.2,-,N/A,,Overcast,70,2013-01-03 16:25:00
10:49 AM,32.0,30.2,93,30.40,5.0,ENE,10.4,-,N/A,,Overcast,60,2013-01-03 16:49:00
10:53 AM,32.0,30.0,92,30.40,4.0,ENE,11.5,-,N/A,,Overcast,60,2013-01-03 16:53:00
11:53 AM,30.9,28.9,92,30.40,4.0,ENE,12.7,-,0.00,,Overcast,70,2013-01-03 17:53:00
12:16 PM,30.2,28.4,93,30.40,1.8,ENE,8.1,-,0.01,Snow,Light Snow,70,2013-01-03 18:16:00
12:30 PM,30.2,28.4,93,30.38,1.0,NE,9.2,-,0.01,Snow,Light Snow,50,2013-01-03 18:30:00
12:44 PM,30.2,28.4,93,30.37,2.0,ENE,10.4,-,0.01,Snow,Light Snow,60,2013-01-03 18:44:00
12:53 PM,30.9,28.9,92,30.38,3.0,ENE,10.4,-,0.01,,Overcast,60,2013-01-03 18:53:00
1:18 PM,32.0,28.4,87,30.37,4.0,ENE,8.1,-,N/A,,Overcast,60,2013-01-03 19:18:00
1:34 PM,32.0,28.4,87,30.35,5.0,ENE,9.2,-,N/A,,Overcast,70,2013-01-03 19:34:00
1:53 PM,32.0,30.0,92,30.35,5.0,ENE,8.1,-,N/A,,Overcast,70,2013-01-03 19:53:00
2:18 PM,33.8,30.2,87,30.34,5.0,ENE,8.1,-,N/A,,Overcast,70,2013-01-03 20:18:00
2:53 PM,33.1,30.9,92,30.33,6.0,ENE,10.4,-,N/A,,Overcast,70,2013-01-03 20:53:00
3:10 PM,33.8,30.2,87,30.32,6.0,ENE,11.5,-,N/A,,Overcast,70,2013-01-03 21:10:00
3:43 PM,33.8,30.2,87,30.34,10.0,ENE,9.2,-,N/A,,Overcast,70,2013-01-03 21:43:00
3:50 PM,33.8,30.2,87,30.33,10.0,ENE,9.2,-,N/A,,Overcast,70,2013-01-03 21:50:00
3:53 PM,33.1,30.0,89,30.33,10.0,East,9.2,-,N/A,,Overcast,80,2013-01-03 21:53:00
4:39 PM,33.8,30.2,87,30.32,2.5,ENE,10.4,-,0.00,Snow,Light Snow,70,2013-01-03 22:39:00
4:47 PM,33.8,30.2,87,30.33,1.8,ENE,11.5,-,0.00,Snow,Light Snow,60,2013-01-03 22:47:00
4:50 PM,33.8,30.2,87,30.33,1.5,ENE,10.4,-,0.00,Snow,Light Snow,60,2013-01-03 22:50:00
4:53 PM,33.1,30.0,89,30.34,1.2,ENE,11.5,-,0.00,Snow,Light Snow,60,2013-01-03 22:53:00
4:56 PM,32.0,28.4,87,30.34,0.8,ENE,12.7,-,0.00,Snow,Light Snow,60,2013-01-03 22:56:00
5:15 PM,30.2,28.4,93,30.35,0.5,ENE,6.9,-,0.00,Fog-Snow,Snow,60,2013-01-03 23:15:00
5:30 PM,30.2,28.4,93,30.34,0.8,East,10.4,-,0.00,Snow,Light Snow,80,2013-01-03 23:30:00
5:43 PM,30.2,28.4,93,30.33,0.5,East,11.5,-,0.01,Fog-Snow,Snow,80,2013-01-03 23:43:00
5:53 PM,30.9,28.9,92,30.33,0.5,East,10.4,-,0.01,Fog-Snow,Snow,80,2013-01-03 23:53:00
6:13 PM,30.2,28.4,93,30.35,1.0,ENE,12.7,-,0.01,Snow,Light Snow,70,2013-01-04 00:13:00
6:39 PM,30.2,28.4,93,30.37,0.8,ENE,6.9,-,0.02,Snow,Light Snow,60,2013-01-04 00:39:00
6:47 PM,30.2,28.4,93,30.37,0.8,NE,9.2,-,0.03,Snow,Light Snow,50,2013-01-04 00:47:00
6:53 PM,30.0,28.9,96,30.37,0.8,NE,8.1,-,0.03,Snow,Light Snow,50,2013-01-04 00:53:00
6:59 PM,30.2,28.4,93,30.37,0.5,NE,9.2,-,0.00,Fog-Snow,Snow,50,2013-01-04 00:59:00
7:10 PM,30.2,28.4,93,30.37,0.5,ENE,11.5,-,0.01,Fog-Snow,Snow,60,2013-01-04 01:10:00
7:17 PM,30.2,28.4,93,30.37,0.5,ENE,11.5,-,0.02,Fog-Snow,Snow,60,2013-01-04 01:17:00
7:39 PM,30.2,28.4,93,30.37,0.8,ENE,9.2,-,0.03,Snow,Light Snow,70,2013-01-04 01:39:00
7:53 PM,30.0,28.0,92,30.38,0.5,ENE,12.7,-,0.03,Fog-Snow,Snow,70,2013-01-04 01:53:00
8:02 PM,30.2,28.4,93,30.38,0.5,ENE,8.1,-,0.01,Fog-Snow,Snow,60,2013-01-04 02:02:00
8:29 PM,28.4,28.4,100,30.36,0.5,ENE,15.0,-,0.02,Fog-Snow,Snow,70,2013-01-04 02:29:00
8:53 PM,28.9,28.0,96,30.38,0.8,ENE,10.4,-,0.04,Snow,Light Snow,60,2013-01-04 02:53:00
9:05 PM,28.4,28.4,100,30.39,0.5,ENE,9.2,-,0.01,Fog-Snow,Snow,60,2013-01-04 03:05:00
9:39 PM,28.4,28.4,100,30.39,0.8,ENE,11.5,-,0.04,Snow,Light Snow,60,2013-01-04 03:39:00
9:53 PM,28.9,28.0,96,30.39,0.8,East,11.5,-,0.05,Snow,Light Snow,80,2013-01-04 03:53:00
10:13 PM,28.4,26.6,93,30.37,0.5,East,11.5,-,0.00,Fog-Snow,Snow,80,2013-01-04 04:13:00
10:29 PM,28.4,26.6,93,30.39,0.5,ENE,9.2,-,0.01,Fog-Snow,Snow,70,2013-01-04 04:29:00
10:53 PM,28.9,28.0,96,30.41,0.5,ENE,8.1,-,0.03,Fog-Snow,Snow,60,2013-01-04 04:53:00
11:13 PM,28.4,28.4,100,30.41,0.8,ENE,6.9,-,0.02,Snow,Light Snow,70,2013-01-04 05:13:00
11:36 PM,28.4,26.6,93,30.38,0.5,ENE,11.5,-,0.04,Fog-Snow,Snow,70,2013-01-04 05:36:00
11:45 PM,28.4,26.6,93,30.40,1.0,ENE,6.9,-,0.04,Snow,Light Snow,70,2013-01-04 05:45:00
11:53 PM,28.9,27.0,92,30.41,1.5,ENE,8.1,-,0.04,Snow,Light Snow,70,2013-01-04 05:53:00